TWA113 KSTL-KLAX

Flight info

Callsign TWA113
Flight time 4h 15m
Altitude 40000
Route BRAKK5 HLV SLN PUB PEEWE Q98 HAKMN ANJLL4
Aircraft B788/H-L/4004

Departure

Time 2026-05-04 23:03
Airport St. Louis Lambert International Airport (KSTL)

Arrival

Time 2026-05-05 03:18
Airport Los Angeles International Airport (KLAX)
Time Latitude Longitude Altitude Speed Heading
2026-05-04 23:02 38.75605 -90.35794 617 ft 0 kts 243°
2026-05-04 23:03 38.75592 -90.35826 617 ft 28 kts 243°
2026-05-04 23:03 38.75315 -90.36515 618 ft 140 kts 243°
2026-05-04 23:03 38.74820 -90.37753 1463 ft 157 kts 242°
2026-05-04 23:04 38.74403 -90.39050 2844 ft 161 kts 247°
2026-05-04 23:04 38.74515 -90.40570 3617 ft 186 kts 277°
2026-05-04 23:04 38.75216 -90.41981 4611 ft 187 kts 295°
2026-05-04 23:04 38.75890 -90.43439 5532 ft 193 kts 292°
2026-05-04 23:05 38.76512 -90.45030 6302 ft 205 kts 290°
2026-05-04 23:05 38.77116 -90.46761 6987 ft 220 kts 289°
2026-05-04 23:05 38.77721 -90.48642 7690 ft 234 kts 288°
2026-05-04 23:05 38.78324 -90.50609 8508 ft 242 kts 288°
2026-05-04 23:06 38.78928 -90.52634 9421 ft 247 kts 288°
2026-05-04 23:06 38.79535 -90.54711 10298 ft 253 kts 288°
2026-05-04 23:06 38.80165 -90.56898 10936 ft 268 kts 288°
2026-05-04 23:06 38.80830 -90.59219 11487 ft 286 kts 288°
2026-05-04 23:07 38.81531 -90.61683 12008 ft 304 kts 288°
2026-05-04 23:07 38.82023 -90.63415 12346 ft 316 kts 288°
2026-05-04 23:07 38.82792 -90.66136 12843 ft 334 kts 288°
2026-05-04 23:07 38.83894 -90.70033 13470 ft 358 kts 288°
2026-05-04 23:08 38.84748 -90.73059 14084 ft 370 kts 288°
2026-05-04 23:08 38.85337 -90.75146 14511 ft 378 kts 288°
2026-05-04 23:08 38.86240 -90.78358 15208 ft 387 kts 288°
2026-05-04 23:08 38.87163 -90.81643 15988 ft 393 kts 288°
2026-05-04 23:09 38.88097 -90.84970 16728 ft 400 kts 289°
2026-05-04 23:09 38.89052 -90.88380 17448 ft 406 kts 289°
2026-05-04 23:09 38.90012 -90.91813 18157 ft 413 kts 289°
2026-05-04 23:09 38.90976 -90.95265 18901 ft 417 kts 289°
2026-05-04 23:10 38.91966 -90.98807 19628 ft 422 kts 289°
2026-05-04 23:10 38.92964 -91.02382 20305 ft 428 kts 289°
2026-05-04 23:10 38.93975 -91.06014 20953 ft 433 kts 289°
2026-05-04 23:10 38.94994 -91.09680 21582 ft 438 kts 289°
2026-05-04 23:11 38.96012 -91.13396 22206 ft 442 kts 288°
2026-05-04 23:11 38.96835 -91.17179 22759 ft 446 kts 283°
2026-05-04 23:11 38.97540 -91.21091 23298 ft 451 kts 282°
2026-05-04 23:11 38.98190 -91.25056 23853 ft 455 kts 281°
2026-05-04 23:12 38.98813 -91.29027 24596 ft 455 kts 281°
2026-05-04 23:12 38.99429 -91.33038 25362 ft 454 kts 281°
2026-05-04 23:12 39.00041 -91.37036 26005 ft 456 kts 281°
2026-05-04 23:12 39.00646 -91.41010 26524 ft 460 kts 281°
2026-05-04 23:13 39.01266 -91.45102 27154 ft 461 kts 281°
2026-05-04 23:13 39.01875 -91.49109 27840 ft 463 kts 281°
2026-05-04 23:13 39.02497 -91.53219 28381 ft 468 kts 281°
2026-05-04 23:13 39.03118 -91.57328 29058 ft 469 kts 282°
2026-05-04 23:14 39.03736 -91.61429 29866 ft 466 kts 282°
2026-05-04 23:14 39.04350 -91.65516 30709 ft 462 kts 282°
2026-05-04 23:14 39.04950 -91.69514 31506 ft 458 kts 282°
2026-05-04 23:14 39.05551 -91.73524 32227 ft 456 kts 282°
2026-05-04 23:15 39.06153 -91.77550 33017 ft 451 kts 282°
2026-05-04 23:15 39.06742 -91.81500 33792 ft 446 kts 282°
2026-05-04 23:15 39.07320 -91.85378 34720 ft 437 kts 282°
2026-05-04 23:15 39.07885 -91.89194 35511 ft 431 kts 282°
2026-05-04 23:16 39.08436 -91.92925 36230 ft 425 kts 282°
2026-05-04 23:16 39.08984 -91.96649 36914 ft 420 kts 282°
2026-05-04 23:16 39.09525 -92.00327 37561 ft 415 kts 282°
2026-05-04 23:16 39.10058 -92.03962 38168 ft 411 kts 283°
2026-05-04 23:17 39.10578 -92.07512 38730 ft 406 kts 283°
2026-05-04 23:17 39.11001 -92.11139 39225 ft 406 kts 279°
2026-05-04 23:17 39.11144 -92.14735 39600 ft 406 kts 276°
2026-05-04 23:17 39.11194 -92.18406 39812 ft 406 kts 275°
2026-05-04 23:18 39.11199 -92.22011 39941 ft 407 kts 274°
2026-05-04 23:18 39.11180 -92.25648 39955 ft 405 kts 274°
2026-05-04 23:18 39.11109 -92.32824 39969 ft 393 kts 274°
2026-05-04 23:19 39.11026 -92.39755 39974 ft 388 kts 274°
2026-05-04 23:19 39.10939 -92.46772 39984 ft 393 kts 274°
2026-05-04 23:20 39.10842 -92.53801 39969 ft 392 kts 274°
2026-05-04 23:20 39.10740 -92.60821 39978 ft 392 kts 274°
2026-05-04 23:21 39.10634 -92.67861 39988 ft 393 kts 274°
2026-05-04 23:21 39.10523 -92.74860 39976 ft 392 kts 274°
2026-05-04 23:22 39.10408 -92.81873 39987 ft 392 kts 274°
2026-05-04 23:22 39.10288 -92.88837 39994 ft 384 kts 274°
2026-05-04 23:23 39.10167 -92.95702 39992 ft 384 kts 274°
2026-05-04 23:23 39.10044 -93.02590 40001 ft 385 kts 274°
2026-05-04 23:24 39.09915 -93.09472 39989 ft 385 kts 273°
2026-05-04 23:24 39.09781 -93.16382 40001 ft 386 kts 273°
2026-05-04 23:25 39.09644 -93.23275 39996 ft 386 kts 273°
2026-05-04 23:25 39.09502 -93.30167 39992 ft 385 kts 273°
2026-05-04 23:26 39.09357 -93.37062 40002 ft 385 kts 273°
2026-05-04 23:26 39.09207 -93.43952 39991 ft 385 kts 273°
2026-05-04 23:27 39.09054 -93.50845 39995 ft 385 kts 273°
2026-05-04 23:27 39.08897 -93.57747 39993 ft 387 kts 273°
2026-05-04 23:28 39.08735 -93.64689 40066 ft 390 kts 273°
2026-05-04 23:28 39.08562 -93.71648 39986 ft 385 kts 273°
2026-05-04 23:29 39.08394 -93.78505 39975 ft 382 kts 273°
2026-05-04 23:29 39.08224 -93.85318 39965 ft 382 kts 273°
2026-05-04 23:30 39.08048 -93.92179 39980 ft 383 kts 273°
2026-05-04 23:30 39.07868 -93.98999 39974 ft 382 kts 273°
2026-05-04 23:31 39.07682 -94.05871 39955 ft 382 kts 273°
2026-05-04 23:31 39.07495 -94.12692 39955 ft 383 kts 273°
2026-05-04 23:32 39.07301 -94.19567 39968 ft 384 kts 273°
2026-05-04 23:32 39.07105 -94.26370 39955 ft 383 kts 273°
2026-05-04 23:33 39.06906 -94.33224 39949 ft 383 kts 272°
2026-05-04 23:33 39.06700 -94.40088 39963 ft 385 kts 272°
2026-05-04 23:34 39.06490 -94.46932 39953 ft 384 kts 272°
2026-05-04 23:34 39.06275 -94.53807 39937 ft 383 kts 272°
2026-05-04 23:35 39.06060 -94.60625 39945 ft 383 kts 272°
2026-05-04 23:35 39.05837 -94.67539 39955 ft 384 kts 272°
2026-05-04 23:36 39.05612 -94.74365 39941 ft 383 kts 272°
2026-05-04 23:36 39.05383 -94.81236 39951 ft 383 kts 272°
2026-05-04 23:37 39.05151 -94.88074 39963 ft 384 kts 272°
2026-05-04 23:37 39.04911 -94.94956 39952 ft 384 kts 272°
2026-05-04 23:38 39.04670 -95.01810 39963 ft 385 kts 272°
2026-05-04 23:38 39.04425 -95.08662 39968 ft 384 kts 272°
2026-05-04 23:39 39.04174 -95.15525 39961 ft 384 kts 271°
2026-05-04 23:39 39.03920 -95.22405 39967 ft 385 kts 271°
2026-05-04 23:40 39.03663 -95.29249 39954 ft 384 kts 271°
2026-05-04 23:40 39.03401 -95.36182 39969 ft 388 kts 271°
2026-05-04 23:41 39.03133 -95.43076 39958 ft 387 kts 271°
2026-05-04 23:41 39.02860 -95.49971 39943 ft 386 kts 271°
2026-05-04 23:42 39.02585 -95.56866 39956 ft 387 kts 271°
2026-05-04 23:42 39.02304 -95.63799 39956 ft 388 kts 271°
2026-05-04 23:43 39.02025 -95.70751 39950 ft 394 kts 269°
2026-05-04 23:43 39.01721 -95.77784 39990 ft 390 kts 271°
2026-05-04 23:44 39.01426 -95.84639 39968 ft 373 kts 271°
2026-05-04 23:44 39.01282 -95.87897 39954 ft 357 kts 272°
2026-05-04 23:44 39.01145 -95.91028 39938 ft 348 kts 272°
2026-05-04 23:45 39.00883 -95.97263 39959 ft 354 kts 272°
2026-05-04 23:45 39.00608 -96.03667 39959 ft 360 kts 272°
2026-05-04 23:46 39.00322 -96.10078 39946 ft 358 kts 272°
2026-05-04 23:46 39.00035 -96.16454 39945 ft 358 kts 272°
2026-05-04 23:47 38.99743 -96.22850 39939 ft 358 kts 272°
2026-05-04 23:47 38.99447 -96.29246 39955 ft 353 kts 272°
2026-05-04 23:48 38.99155 -96.35412 39934 ft 344 kts 272°
2026-05-04 23:48 38.98867 -96.41569 39950 ft 348 kts 272°
2026-05-04 23:49 38.98720 -96.44696 39769 ft 352 kts 272°
2026-05-04 23:49 38.98570 -96.47822 39727 ft 348 kts 272°
2026-05-04 23:49 38.98419 -96.50935 39575 ft 347 kts 272°
2026-05-04 23:49 38.98268 -96.54019 39680 ft 340 kts 272°
2026-05-04 23:50 38.97972 -96.60091 39631 ft 345 kts 272°
2026-05-04 23:50 38.97669 -96.66287 39631 ft 348 kts 272°
2026-05-04 23:51 38.97360 -96.72473 39636 ft 347 kts 272°
2026-05-04 23:51 38.97047 -96.78671 39633 ft 347 kts 272°
2026-05-04 23:52 38.96784 -96.83853 39646 ft 350 kts 271°
2026-05-04 23:52 38.96461 -96.90111 39632 ft 349 kts 271°
2026-05-04 23:53 38.96140 -96.96283 39640 ft 348 kts 271°
2026-05-04 23:53 38.95813 -97.02521 39644 ft 349 kts 271°
2026-05-04 23:54 38.95482 -97.08755 39631 ft 348 kts 271°
2026-05-04 23:54 38.95151 -97.14948 39644 ft 350 kts 271°
2026-05-04 23:55 38.94813 -97.21187 39638 ft 349 kts 271°
2026-05-04 23:56 38.94302 -97.30515 39645 ft 348 kts 271°
2026-05-04 23:56 38.93961 -97.36641 39639 ft 344 kts 271°
2026-05-04 23:57 38.93618 -97.42790 39642 ft 345 kts 271°
2026-05-04 23:57 38.93272 -97.48938 39649 ft 347 kts 271°
2026-05-04 23:58 38.92922 -97.55106 39540 ft 348 kts 269°
2026-05-04 23:58 38.92747 -97.58312 38927 ft 370 kts 269°
2026-05-04 23:58 38.92543 -97.61635 38998 ft 366 kts 271°
2026-05-04 23:58 38.92341 -97.64830 39188 ft 348 kts 271°
2026-05-04 23:59 38.92147 -97.67825 39438 ft 337 kts 271°
2026-05-04 23:59 38.91953 -97.70868 39580 ft 336 kts 271°
2026-05-04 23:59 38.91767 -97.73819 39625 ft 338 kts 271°
2026-05-05 00:00 38.91382 -97.79891 39641 ft 342 kts 271°
2026-05-05 00:00 38.90988 -97.85991 39647 ft 344 kts 271°
2026-05-05 00:01 38.90588 -97.92120 39644 ft 344 kts 270°
2026-05-05 00:01 38.90184 -97.98245 39632 ft 344 kts 270°
2026-05-05 00:02 38.89777 -98.04367 39644 ft 344 kts 270°
2026-05-05 00:02 38.89369 -98.10472 39647 ft 344 kts 270°
2026-05-05 00:03 38.88956 -98.16584 39765 ft 343 kts 270°
2026-05-05 00:03 38.88540 -98.22711 39780 ft 344 kts 270°
2026-05-05 00:04 38.88122 -98.28827 39795 ft 346 kts 270°
2026-05-05 00:04 38.87694 -98.35038 39811 ft 349 kts 270°
2026-05-05 00:05 38.87263 -98.41226 39821 ft 350 kts 270°
2026-05-05 00:05 38.86826 -98.47449 39810 ft 350 kts 270°
2026-05-05 00:06 38.86388 -98.53644 39815 ft 351 kts 270°
2026-05-05 00:06 38.85944 -98.59881 39820 ft 350 kts 270°
2026-05-05 00:07 38.85498 -98.66098 39808 ft 350 kts 270°
2026-05-05 00:07 38.85048 -98.72326 39821 ft 351 kts 270°
2026-05-05 00:08 38.84592 -98.78585 39815 ft 351 kts 270°
2026-05-05 00:08 38.84140 -98.84734 39808 ft 346 kts 270°
2026-05-05 00:09 38.83685 -98.90897 39822 ft 348 kts 270°
2026-05-05 00:09 38.83225 -98.97077 39813 ft 348 kts 270°
2026-05-05 00:10 38.82763 -99.03244 39813 ft 348 kts 270°
2026-05-05 00:10 38.82296 -99.09439 39822 ft 349 kts 270°
2026-05-05 00:11 38.81825 -99.15625 39809 ft 348 kts 270°
2026-05-05 00:11 38.81354 -99.21781 39820 ft 349 kts 270°
2026-05-05 00:12 38.80878 -99.27972 39816 ft 349 kts 269°
2026-05-05 00:12 38.80397 -99.34170 39811 ft 349 kts 269°
2026-05-05 00:13 38.79912 -99.40373 39754 ft 351 kts 269°
2026-05-05 00:13 38.79422 -99.46580 39783 ft 348 kts 269°
2026-05-05 00:14 38.78933 -99.52751 39809 ft 349 kts 269°
2026-05-05 00:14 38.78438 -99.58954 39822 ft 350 kts 269°
2026-05-05 00:15 38.77938 -99.65174 39811 ft 350 kts 269°
2026-05-05 00:15 38.77440 -99.71330 39814 ft 349 kts 269°
2026-05-05 00:16 38.76935 -99.77541 39823 ft 349 kts 269°
2026-05-05 00:16 38.76427 -99.83757 39810 ft 350 kts 268°
2026-05-05 00:17 38.75916 -99.89943 39820 ft 351 kts 268°
2026-05-05 00:17 38.75398 -99.96170 39817 ft 351 kts 268°
2026-05-05 00:18 38.74879 -100.02373 39810 ft 350 kts 269°
2026-05-05 00:18 38.74353 -100.08571 39822 ft 351 kts 270°
2026-05-05 00:19 38.73827 -100.14827 39812 ft 352 kts 270°
2026-05-05 00:19 38.73300 -100.21018 39814 ft 351 kts 270°
2026-05-05 00:20 38.72766 -100.27256 39822 ft 352 kts 269°
2026-05-05 00:20 38.72232 -100.33482 39808 ft 351 kts 269°
2026-05-05 00:21 38.71693 -100.39665 39819 ft 351 kts 269°
2026-05-05 00:21 38.71149 -100.45893 39818 ft 351 kts 269°
2026-05-05 00:22 38.70602 -100.52101 39809 ft 351 kts 269°
2026-05-05 00:22 38.70055 -100.58288 39823 ft 351 kts 269°
2026-05-05 00:23 38.69501 -100.64505 39813 ft 351 kts 269°
2026-05-05 00:23 38.68946 -100.70705 39814 ft 351 kts 268°
2026-05-05 00:24 38.68386 -100.76930 39822 ft 352 kts 268°
2026-05-05 00:24 38.67825 -100.83109 39809 ft 351 kts 268°
2026-05-05 00:25 38.67257 -100.89348 39819 ft 351 kts 268°
2026-05-05 00:25 38.66692 -100.95507 39818 ft 350 kts 268°
2026-05-05 00:26 38.66119 -101.01713 39810 ft 351 kts 268°
2026-05-05 00:26 38.65544 -101.07917 39822 ft 351 kts 268°
2026-05-05 00:27 38.64966 -101.14111 39743 ft 350 kts 268°
2026-05-05 00:27 38.64398 -101.20094 39790 ft 333 kts 268°
2026-05-05 00:28 38.63852 -101.25857 39742 ft 320 kts 268°
2026-05-05 00:28 38.63585 -101.28698 39489 ft 321 kts 269°
2026-05-05 00:28 38.63320 -101.31463 39721 ft 308 kts 269°
2026-05-05 00:28 38.63061 -101.34158 39843 ft 298 kts 269°
2026-05-05 00:29 38.62812 -101.36758 39893 ft 292 kts 269°
2026-05-05 00:29 38.62570 -101.39300 39919 ft 286 kts 269°
2026-05-05 00:29 38.62329 -101.41820 39911 ft 281 kts 269°
2026-05-05 00:29 38.62096 -101.44248 39909 ft 276 kts 269°
2026-05-05 00:30 38.61863 -101.46670 39881 ft 273 kts 269°
2026-05-05 00:30 38.61632 -101.49090 39567 ft 277 kts 269°
2026-05-05 00:30 38.61397 -101.51549 39367 ft 278 kts 269°
2026-05-05 00:30 38.61160 -101.53997 39220 ft 277 kts 269°
2026-05-05 00:31 38.60925 -101.56381 39567 ft 263 kts 269°
2026-05-05 00:31 38.60697 -101.58721 39289 ft 267 kts 269°
2026-05-05 00:31 38.60471 -101.61071 38984 ft 271 kts 269°
2026-05-05 00:31 38.60236 -101.63504 38691 ft 277 kts 269°
2026-05-05 00:32 38.59994 -101.65985 38409 ft 282 kts 269°
2026-05-05 00:32 38.59749 -101.68495 38138 ft 287 kts 269°
2026-05-05 00:32 38.59499 -101.71042 37880 ft 292 kts 269°
2026-05-05 00:32 38.59243 -101.73636 37669 ft 296 kts 269°
2026-05-05 00:33 38.58982 -101.76272 37467 ft 299 kts 269°
2026-05-05 00:33 38.58723 -101.78858 37707 ft 289 kts 269°
2026-05-05 00:33 38.58469 -101.81382 37577 ft 292 kts 269°
2026-05-05 00:33 38.58207 -101.84057 36928 ft 307 kts 268°
2026-05-05 00:34 38.57927 -101.86747 37100 ft 301 kts 268°
2026-05-05 00:34 38.57616 -101.89280 37966 ft 272 kts 267°
2026-05-05 00:34 38.57317 -101.91509 38819 ft 249 kts 269°
2026-05-05 00:34 38.57113 -101.93743 38358 ft 258 kts 270°
2026-05-05 00:35 38.56914 -101.96076 37807 ft 272 kts 270°
2026-05-05 00:35 38.56694 -101.98539 37461 ft 281 kts 269°
2026-05-05 00:35 38.56461 -102.01040 37084 ft 290 kts 269°
2026-05-05 00:35 38.56213 -102.03632 36723 ft 299 kts 269°
2026-05-05 00:36 38.55951 -102.06308 36416 ft 306 kts 268°
2026-05-05 00:36 38.55682 -102.09014 36133 ft 312 kts 268°
2026-05-05 00:36 38.55401 -102.11810 35862 ft 318 kts 268°
2026-05-05 00:36 38.55213 -102.13660 35697 ft 322 kts 268°
2026-05-05 00:37 38.54922 -102.16520 35467 ft 327 kts 268°
2026-05-05 00:37 38.54624 -102.19433 35257 ft 332 kts 268°
2026-05-05 00:37 38.54322 -102.22374 35088 ft 335 kts 268°
2026-05-05 00:37 38.54015 -102.25347 34979 ft 338 kts 268°
2026-05-05 00:38 38.53605 -102.29292 34903 ft 339 kts 267°
2026-05-05 00:38 38.53083 -102.34304 34850 ft 340 kts 267°
2026-05-05 00:39 38.52463 -102.40205 35185 ft 331 kts 268°
2026-05-05 00:39 38.52157 -102.43098 35425 ft 324 kts 268°
2026-05-05 00:39 38.51859 -102.45918 35652 ft 318 kts 268°
2026-05-05 00:39 38.51569 -102.48657 35888 ft 311 kts 268°
2026-05-05 00:40 38.51284 -102.51356 36133 ft 303 kts 268°
2026-05-05 00:40 38.51002 -102.54004 36383 ft 296 kts 268°
2026-05-05 00:40 38.50731 -102.56563 36629 ft 288 kts 268°
2026-05-05 00:40 38.50464 -102.59071 36876 ft 281 kts 268°
2026-05-05 00:41 38.50206 -102.61488 37121 ft 273 kts 269°
2026-05-05 00:41 38.49953 -102.63834 37345 ft 254 kts 269°
2026-05-05 00:41 38.49717 -102.66017 37344 ft 245 kts 269°
2026-05-05 00:41 38.49491 -102.68162 37394 ft 243 kts 269°
2026-05-05 00:42 38.49267 -102.70274 37398 ft 242 kts 269°
2026-05-05 00:42 38.49041 -102.72396 37434 ft 241 kts 269°
2026-05-05 00:42 38.48816 -102.74508 37456 ft 240 kts 269°
2026-05-05 00:42 38.48590 -102.76608 37479 ft 238 kts 269°
2026-05-05 00:43 38.48365 -102.78704 37446 ft 239 kts 269°
2026-05-05 00:43 38.48136 -102.80840 37266 ft 241 kts 269°
2026-05-05 00:43 38.47910 -102.82907 37484 ft 231 kts 269°
2026-05-05 00:43 38.47688 -102.84947 37505 ft 230 kts 269°
2026-05-05 00:44 38.47469 -102.86961 37571 ft 227 kts 269°
2026-05-05 00:44 38.47253 -102.88953 37566 ft 226 kts 269°
2026-05-05 00:44 38.47037 -102.90934 37604 ft 224 kts 269°
2026-05-05 00:44 38.46823 -102.92893 37621 ft 222 kts 269°
2026-05-05 00:45 38.46610 -102.94843 37640 ft 220 kts 269°
2026-05-05 00:45 38.46402 -102.96741 37659 ft 218 kts 269°
2026-05-05 00:45 38.46190 -102.98673 37679 ft 215 kts 269°
2026-05-05 00:45 38.45986 -103.00529 37700 ft 213 kts 270°
2026-05-05 00:46 38.45780 -103.02400 37721 ft 210 kts 270°
2026-05-05 00:46 38.45576 -103.04242 37742 ft 208 kts 270°
2026-05-05 00:46 38.45376 -103.06057 37763 ft 205 kts 270°
2026-05-05 00:46 38.45178 -103.07850 37783 ft 203 kts 270°
2026-05-05 00:47 38.44985 -103.09592 37801 ft 200 kts 270°
2026-05-05 00:47 38.44790 -103.11347 37821 ft 197 kts 270°
2026-05-05 00:47 38.44599 -103.13068 37839 ft 194 kts 270°
2026-05-05 00:47 38.44412 -103.14743 37854 ft 191 kts 270°
2026-05-05 00:48 38.44227 -103.16408 37867 ft 188 kts 270°
2026-05-05 00:48 38.44044 -103.18051 37880 ft 185 kts 270°
2026-05-05 00:48 38.43863 -103.19669 37891 ft 182 kts 270°
2026-05-05 00:48 38.43685 -103.21254 37903 ft 178 kts 270°
2026-05-05 00:49 38.43514 -103.22782 37893 ft 174 kts 270°
2026-05-05 00:49 38.43344 -103.24298 37847 ft 170 kts 270°
2026-05-05 00:49 38.43178 -103.25767 37774 ft 163 kts 271°
2026-05-05 00:49 38.43020 -103.27169 37533 ft 158 kts 271°
2026-05-05 00:50 38.42866 -103.28615 35796 ft 179 kts 270°
2026-05-05 00:50 38.42688 -103.30388 31356 ft 231 kts 268°
2026-05-05 00:50 38.42436 -103.32798 26832 ft 307 kts 266°
2026-05-05 00:50 38.42137 -103.35275 27103 ft 225 kts 266°
2026-05-05 00:51 38.41936 -103.36810 29240 ft 140 kts 268°
2026-05-05 00:51 38.41792 -103.37970 28939 ft 139 kts 269°
2026-05-05 00:51 38.41653 -103.39328 23731 ft 185 kts 265°
2026-05-05 00:51 38.41388 -103.41833 18818 ft 355 kts 262°
2026-05-05 00:52 38.41062 -103.44615 20190 ft 269 kts 261°
2026-05-05 00:52 38.40832 -103.46586 21940 ft 195 kts 262°
2026-05-05 00:52 38.40651 -103.48131 22855 ft 167 kts 263°
2026-05-05 00:52 38.40471 -103.49712 22283 ft 202 kts 263°
2026-05-05 00:53 38.40251 -103.51815 20433 ft 282 kts 262°
2026-05-05 00:53 38.39922 -103.54727 17820 ft 381 kts 261°
2026-05-05 00:53 38.39489 -103.58411 16120 ft 445 kts 260°
2026-05-05 00:53 38.39003 -103.62183 17242 ft 420 kts 260°
2026-05-05 00:54 38.38577 -103.65771 18429 ft 404 kts 261°
2026-05-05 00:54 38.38175 -103.69324 18583 ft 412 kts 261°
2026-05-05 00:54 38.37768 -103.72953 18920 ft 414 kts 261°
2026-05-05 00:54 38.37351 -103.76615 19135 ft 414 kts 261°
2026-05-05 00:55 38.36929 -103.80266 19383 ft 414 kts 261°
2026-05-05 00:55 38.36509 -103.83881 19636 ft 414 kts 261°
2026-05-05 00:55 38.36085 -103.87503 19886 ft 413 kts 261°
2026-05-05 00:55 38.35662 -103.91104 20136 ft 412 kts 261°
2026-05-05 00:56 38.35238 -103.94695 20385 ft 411 kts 261°
2026-05-05 00:56 38.34811 -103.98301 20636 ft 411 kts 261°
2026-05-05 00:56 38.34382 -104.01912 20887 ft 410 kts 261°
2026-05-05 00:56 38.33958 -104.05464 21135 ft 409 kts 262°
2026-05-05 00:57 38.33527 -104.09074 21388 ft 408 kts 262°
2026-05-05 00:57 38.33100 -104.12641 21638 ft 408 kts 262°
2026-05-05 00:57 38.32671 -104.16207 21889 ft 407 kts 262°
2026-05-05 00:57 38.32241 -104.19783 22141 ft 406 kts 262°
2026-05-05 00:58 38.31812 -104.23335 22393 ft 406 kts 262°
2026-05-05 00:58 38.31377 -104.26772 22644 ft 375 kts 264°
2026-05-05 00:58 38.30999 -104.29921 22856 ft 363 kts 262°
2026-05-05 00:58 38.30618 -104.33122 23111 ft 366 kts 263°
2026-05-05 00:59 38.30222 -104.36368 23287 ft 371 kts 263°
2026-05-05 00:59 38.29828 -104.39615 23355 ft 378 kts 263°
2026-05-05 00:59 38.29421 -104.42938 23456 ft 384 kts 263°
2026-05-05 00:59 38.28941 -104.46315 23674 ft 387 kts 261°
2026-05-05 01:00 38.28424 -104.49704 23913 ft 389 kts 261°
2026-05-05 01:00 38.27903 -104.53076 24180 ft 390 kts 261°
2026-05-05 01:00 38.27378 -104.56476 24428 ft 389 kts 261°
2026-05-05 01:00 38.26867 -104.59792 24673 ft 387 kts 261°
2026-05-05 01:01 38.26351 -104.63146 24923 ft 384 kts 261°
2026-05-05 01:01 38.25840 -104.66472 25172 ft 382 kts 262°
2026-05-05 01:01 38.25330 -104.69792 25422 ft 380 kts 262°
2026-05-05 01:01 38.24824 -104.73079 25672 ft 378 kts 262°
2026-05-05 01:02 38.24315 -104.76377 25924 ft 376 kts 262°
2026-05-05 01:02 38.23819 -104.79571 26170 ft 371 kts 262°
2026-05-05 01:02 38.23324 -104.82780 26421 ft 369 kts 262°
2026-05-05 01:02 38.22832 -104.85966 26670 ft 366 kts 262°
2026-05-05 01:03 38.22338 -104.89154 26922 ft 363 kts 262°
2026-05-05 01:03 38.21852 -104.92284 27167 ft 360 kts 262°
2026-05-05 01:03 38.21365 -104.95413 27420 ft 357 kts 262°
2026-05-05 01:03 38.20884 -104.98496 27671 ft 354 kts 262°
2026-05-05 01:04 38.20410 -105.01526 27919 ft 352 kts 262°
2026-05-05 01:04 38.19461 -105.07584 28422 ft 346 kts 262°
2026-05-05 01:04 38.18992 -105.10569 28673 ft 343 kts 262°
2026-05-05 01:05 38.18525 -105.13534 28925 ft 340 kts 262°
2026-05-05 01:05 38.18062 -105.16471 29175 ft 337 kts 262°
2026-05-05 01:05 38.17603 -105.19370 29421 ft 334 kts 261°
2026-05-05 01:05 38.17146 -105.22254 29671 ft 331 kts 261°
2026-05-05 01:06 38.16694 -105.25107 29921 ft 328 kts 261°
2026-05-05 01:06 38.16244 -105.27940 30175 ft 323 kts 261°
2026-05-05 01:06 38.15800 -105.30730 30421 ft 320 kts 261°
2026-05-05 01:06 38.15360 -105.33490 30674 ft 317 kts 261°
2026-05-05 01:07 38.14930 -105.36182 30920 ft 314 kts 261°
2026-05-05 01:07 38.14495 -105.38900 31170 ft 311 kts 261°
2026-05-05 01:07 38.14064 -105.41587 31298 ft 312 kts 261°
2026-05-05 01:07 38.13629 -105.44297 31534 ft 309 kts 261°
2026-05-05 01:08 38.13201 -105.46964 31745 ft 307 kts 261°
2026-05-05 01:08 38.12775 -105.49609 32019 ft 303 kts 261°
2026-05-05 01:08 38.12359 -105.52186 32238 ft 300 kts 261°
2026-05-05 01:08 38.11943 -105.54766 32499 ft 296 kts 261°
2026-05-05 01:09 38.11526 -105.57344 32743 ft 292 kts 261°
2026-05-05 01:09 38.11125 -105.59822 32989 ft 288 kts 261°
2026-05-05 01:09 38.10722 -105.62310 33239 ft 284 kts 261°
2026-05-05 01:09 38.10328 -105.64737 33488 ft 280 kts 261°
2026-05-05 01:10 38.09934 -105.67158 33730 ft 276 kts 261°
2026-05-05 01:10 38.09549 -105.69525 33971 ft 272 kts 262°
2026-05-05 01:10 38.09167 -105.71871 34041 ft 272 kts 262°
2026-05-05 01:10 38.08780 -105.74263 33835 ft 279 kts 262°
2026-05-05 01:11 38.08387 -105.76675 33760 ft 283 kts 261°
2026-05-05 01:11 38.07988 -105.79136 33755 ft 284 kts 261°
2026-05-05 01:11 38.07585 -105.81597 33734 ft 285 kts 261°
2026-05-05 01:11 38.07183 -105.84041 33740 ft 286 kts 261°
2026-05-05 01:12 38.06776 -105.86516 33752 ft 286 kts 261°
2026-05-05 01:12 38.06368 -105.88992 33754 ft 287 kts 261°
2026-05-05 01:12 38.05961 -105.91467 33747 ft 288 kts 260°
2026-05-05 01:12 38.05551 -105.93946 33741 ft 288 kts 260°
2026-05-05 01:13 38.05138 -105.96446 33740 ft 289 kts 260°
2026-05-05 01:13 38.04725 -105.98944 33753 ft 289 kts 261°
2026-05-05 01:13 38.04315 -106.01419 33757 ft 290 kts 260°
2026-05-05 01:13 38.03895 -106.03954 33750 ft 290 kts 260°
2026-05-05 01:14 38.03478 -106.06463 33744 ft 291 kts 260°
2026-05-05 01:14 38.03059 -106.08980 33742 ft 291 kts 260°
2026-05-05 01:14 38.02645 -106.11469 33747 ft 292 kts 260°
2026-05-05 01:14 38.02224 -106.13992 33753 ft 292 kts 260°
2026-05-05 01:15 38.01804 -106.16507 33752 ft 292 kts 260°
2026-05-05 01:15 38.01381 -106.19038 33744 ft 293 kts 260°
2026-05-05 01:15 38.00958 -106.21565 33746 ft 293 kts 260°
2026-05-05 01:15 38.00535 -106.24085 33754 ft 293 kts 260°
2026-05-05 01:16 38.00116 -106.26581 33758 ft 293 kts 260°
2026-05-05 01:16 37.99691 -106.29112 33752 ft 293 kts 259°
2026-05-05 01:16 37.99266 -106.31652 33745 ft 294 kts 259°
2026-05-05 01:16 37.98837 -106.34195 33740 ft 294 kts 259°
2026-05-05 01:17 37.98407 -106.36731 33748 ft 294 kts 259°
2026-05-05 01:17 37.97977 -106.39269 33755 ft 294 kts 259°
2026-05-05 01:17 37.97546 -106.41810 33756 ft 294 kts 259°
2026-05-05 01:17 37.97114 -106.44358 33753 ft 295 kts 259°
2026-05-05 01:18 37.96688 -106.46868 33755 ft 295 kts 259°
2026-05-05 01:18 37.96249 -106.49445 33753 ft 295 kts 259°
2026-05-05 01:18 37.95823 -106.51946 33746 ft 295 kts 259°
2026-05-05 01:18 37.95387 -106.54503 33740 ft 296 kts 259°
2026-05-05 01:19 37.94950 -106.57063 33741 ft 296 kts 259°
2026-05-05 01:19 37.94517 -106.59597 33746 ft 296 kts 259°
2026-05-05 01:19 37.94077 -106.62168 33748 ft 296 kts 259°
2026-05-05 01:19 37.93641 -106.64708 33744 ft 296 kts 259°
2026-05-05 01:20 37.93208 -106.67229 33740 ft 296 kts 259°
2026-05-05 01:20 37.92770 -106.69777 33749 ft 296 kts 259°
2026-05-05 01:20 37.92329 -106.72339 33756 ft 296 kts 259°
2026-05-05 01:20 37.91891 -106.74880 33756 ft 296 kts 259°
2026-05-05 01:21 37.91599 -106.76577 33750 ft 296 kts 258°
2026-05-05 01:21 37.91010 -106.79988 33740 ft 297 kts 258°
2026-05-05 01:21 37.90718 -106.81675 33740 ft 297 kts 258°
2026-05-05 01:21 37.90129 -106.85072 33748 ft 297 kts 258°
2026-05-05 01:22 37.89832 -106.86781 33765 ft 296 kts 258°
2026-05-05 01:22 37.89390 -106.89324 33875 ft 293 kts 258°
2026-05-05 01:22 37.88955 -106.91821 34003 ft 290 kts 258°
2026-05-05 01:22 37.88522 -106.94303 34128 ft 286 kts 258°
2026-05-05 01:23 37.88097 -106.96736 34252 ft 283 kts 258°
2026-05-05 01:23 37.87676 -106.99150 34377 ft 280 kts 258°
2026-05-05 01:23 37.87255 -107.01553 34502 ft 277 kts 259°
2026-05-05 01:23 37.86842 -107.03915 34627 ft 275 kts 259°
2026-05-05 01:24 37.86429 -107.06267 34753 ft 272 kts 259°
2026-05-05 01:24 37.86021 -107.08591 34878 ft 269 kts 259°
2026-05-05 01:24 37.85615 -107.10901 35003 ft 266 kts 259°
2026-05-05 01:24 37.85215 -107.13177 35127 ft 264 kts 259°
2026-05-05 01:25 37.84816 -107.15438 35252 ft 261 kts 259°
2026-05-05 01:25 37.84425 -107.17659 35376 ft 259 kts 259°
2026-05-05 01:25 37.84039 -107.19841 35497 ft 254 kts 259°
2026-05-05 01:25 37.83655 -107.22008 35522 ft 247 kts 259°
2026-05-05 01:26 37.83278 -107.24140 35558 ft 247 kts 259°
2026-05-05 01:26 37.82903 -107.26261 35573 ft 248 kts 259°
2026-05-05 01:26 37.82525 -107.28398 35596 ft 249 kts 259°
2026-05-05 01:26 37.82145 -107.30537 35624 ft 249 kts 259°
2026-05-05 01:27 37.81764 -107.32683 35650 ft 250 kts 259°
2026-05-05 01:27 37.81383 -107.34827 35676 ft 250 kts 259°
2026-05-05 01:27 37.81005 -107.36947 35702 ft 251 kts 259°
2026-05-05 01:27 37.80619 -107.39108 35727 ft 251 kts 259°
2026-05-05 01:28 37.80234 -107.41264 35752 ft 251 kts 259°
2026-05-05 01:28 37.79845 -107.43423 35707 ft 254 kts 261°
2026-05-05 01:28 37.79460 -107.45595 35820 ft 251 kts 259°
2026-05-05 01:28 37.79072 -107.47766 35825 ft 252 kts 259°
2026-05-05 01:29 37.78689 -107.49896 35798 ft 254 kts 259°
2026-05-05 01:29 37.78287 -107.52142 35296 ft 264 kts 259°
2026-05-05 01:29 37.77881 -107.54400 35269 ft 263 kts 259°
2026-05-05 01:29 37.77470 -107.56684 35062 ft 269 kts 259°
2026-05-05 01:30 37.77055 -107.58982 35025 ft 266 kts 259°
2026-05-05 01:30 37.76640 -107.61279 34793 ft 268 kts 259°
2026-05-05 01:30 37.76226 -107.63570 34563 ft 267 kts 259°
2026-05-05 01:30 37.75812 -107.65859 34318 ft 267 kts 258°
2026-05-05 01:31 37.75397 -107.68152 34058 ft 267 kts 258°
2026-05-05 01:31 37.74989 -107.70398 33850 ft 264 kts 258°
2026-05-05 01:31 37.74575 -107.72684 33768 ft 264 kts 258°
2026-05-05 01:31 37.74168 -107.74937 33761 ft 266 kts 257°
2026-05-05 01:32 37.73754 -107.77221 33743 ft 267 kts 256°
2026-05-05 01:32 37.73334 -107.79519 33750 ft 269 kts 256°
2026-05-05 01:32 37.72912 -107.81829 33763 ft 270 kts 256°
2026-05-05 01:32 37.72489 -107.84139 33766 ft 270 kts 256°
2026-05-05 01:33 37.72064 -107.86460 33756 ft 269 kts 256°
2026-05-05 01:33 37.71642 -107.88763 33749 ft 268 kts 256°
2026-05-05 01:33 37.71223 -107.91050 33753 ft 269 kts 256°
2026-05-05 01:33 37.70803 -107.93339 33762 ft 270 kts 256°
2026-05-05 01:34 37.70378 -107.95652 33764 ft 270 kts 256°
2026-05-05 01:34 37.69952 -107.97969 33756 ft 270 kts 256°
2026-05-05 01:34 37.69528 -108.00268 33750 ft 269 kts 256°
2026-05-05 01:34 37.69102 -108.02578 33752 ft 271 kts 256°
2026-05-05 01:35 37.68676 -108.04887 33763 ft 272 kts 256°
2026-05-05 01:35 37.68244 -108.07226 33766 ft 274 kts 256°
2026-05-05 01:35 37.67808 -108.09584 33758 ft 276 kts 256°
2026-05-05 01:35 37.67364 -108.11984 33751 ft 278 kts 256°
2026-05-05 01:36 37.66928 -108.14332 33749 ft 280 kts 256°
2026-05-05 01:36 37.66483 -108.16733 33757 ft 281 kts 256°
2026-05-05 01:36 37.66033 -108.19152 33763 ft 283 kts 256°
2026-05-05 01:36 37.65581 -108.21580 33761 ft 284 kts 256°
2026-05-05 01:37 37.65127 -108.24017 33754 ft 286 kts 256°
2026-05-05 01:37 37.64677 -108.26431 33746 ft 287 kts 256°
2026-05-05 01:37 37.64219 -108.28890 33757 ft 288 kts 256°
2026-05-05 01:37 37.63758 -108.31358 33765 ft 289 kts 256°
2026-05-05 01:38 37.63294 -108.33831 33759 ft 290 kts 256°
2026-05-05 01:38 37.62831 -108.36303 33752 ft 291 kts 256°
2026-05-05 01:38 37.62362 -108.38799 33750 ft 292 kts 256°
2026-05-05 01:38 37.61895 -108.41288 33758 ft 292 kts 256°
2026-05-05 01:39 37.61422 -108.43799 33763 ft 293 kts 256°
2026-05-05 01:39 37.60951 -108.46300 33760 ft 294 kts 256°
2026-05-05 01:39 37.60477 -108.48811 33752 ft 294 kts 256°
2026-05-05 01:39 37.60004 -108.51316 33747 ft 295 kts 256°
2026-05-05 01:40 37.59531 -108.53816 33756 ft 296 kts 256°
2026-05-05 01:40 37.59055 -108.56334 33763 ft 296 kts 256°
2026-05-05 01:40 37.58575 -108.58864 33761 ft 296 kts 256°
2026-05-05 01:40 37.58093 -108.61405 33752 ft 297 kts 256°
2026-05-05 01:41 37.57611 -108.63941 33759 ft 297 kts 256°
2026-05-05 01:41 37.57126 -108.66486 33757 ft 298 kts 256°
2026-05-05 01:41 37.56648 -108.68995 33752 ft 298 kts 256°
2026-05-05 01:41 37.56162 -108.71545 33752 ft 299 kts 256°
2026-05-05 01:42 37.55674 -108.74101 33759 ft 299 kts 256°
2026-05-05 01:42 37.55186 -108.76653 33762 ft 299 kts 256°
2026-05-05 01:42 37.54698 -108.79203 33761 ft 299 kts 255°
2026-05-05 01:42 37.54210 -108.81752 33752 ft 300 kts 255°
2026-05-05 01:43 37.53720 -108.84299 33748 ft 300 kts 255°
2026-05-05 01:43 37.53216 -108.86858 33753 ft 300 kts 258°
2026-05-05 01:43 37.52244 -108.91995 33769 ft 301 kts 255°
2026-05-05 01:44 37.51254 -108.97116 33750 ft 301 kts 255°
2026-05-05 01:44 37.50255 -109.02260 33759 ft 302 kts 255°
2026-05-05 01:45 37.49263 -109.07366 33768 ft 302 kts 255°
2026-05-05 01:45 37.48758 -109.09963 33886 ft 310 kts 255°
2026-05-05 01:45 37.48232 -109.12661 33754 ft 324 kts 255°
2026-05-05 01:46 37.47121 -109.18357 33431 ft 354 kts 255°
2026-05-05 01:46 37.46520 -109.21428 33566 ft 364 kts 255°
2026-05-05 01:46 37.45906 -109.24565 33760 ft 372 kts 255°
2026-05-05 01:47 37.45283 -109.27745 34036 ft 378 kts 255°
2026-05-05 01:47 37.44646 -109.31001 34277 ft 384 kts 255°
2026-05-05 01:47 37.44008 -109.34247 34528 ft 389 kts 255°
2026-05-05 01:47 37.43357 -109.37549 34777 ft 388 kts 255°
2026-05-05 01:48 37.42706 -109.40843 35026 ft 386 kts 255°
2026-05-05 01:48 37.42059 -109.44117 35276 ft 384 kts 255°
2026-05-05 01:48 37.41421 -109.47343 35523 ft 382 kts 255°
2026-05-05 01:48 37.40779 -109.50579 35772 ft 381 kts 255°
2026-05-05 01:49 37.40137 -109.53814 36018 ft 379 kts 255°
2026-05-05 01:49 37.39500 -109.57014 36273 ft 377 kts 255°
2026-05-05 01:49 37.38866 -109.60198 36523 ft 375 kts 256°
2026-05-05 01:49 37.38235 -109.63364 36773 ft 373 kts 256°
2026-05-05 01:50 37.37602 -109.66531 37024 ft 371 kts 256°
2026-05-05 01:50 37.36975 -109.69671 37274 ft 369 kts 256°
2026-05-05 01:50 37.36356 -109.72760 37522 ft 367 kts 256°
2026-05-05 01:50 37.35725 -109.75904 37776 ft 365 kts 256°
2026-05-05 01:51 37.35112 -109.78968 38023 ft 365 kts 256°
2026-05-05 01:51 37.34493 -109.82051 38274 ft 364 kts 256°
2026-05-05 01:51 37.33872 -109.85129 38525 ft 362 kts 256°
2026-05-05 01:51 37.33256 -109.88180 38774 ft 360 kts 256°
2026-05-05 01:52 37.32643 -109.91209 39023 ft 358 kts 256°
2026-05-05 01:52 37.32027 -109.94254 39276 ft 359 kts 256°
2026-05-05 01:52 37.31408 -109.97304 39574 ft 360 kts 256°
2026-05-05 01:52 37.30790 -110.00353 39710 ft 360 kts 256°
2026-05-05 01:53 37.29556 -110.06424 39729 ft 358 kts 256°
2026-05-05 01:53 37.28324 -110.12463 39740 ft 356 kts 256°
2026-05-05 01:54 37.27085 -110.18523 39744 ft 357 kts 256°
2026-05-05 01:54 37.25858 -110.24510 39727 ft 356 kts 256°
2026-05-05 01:55 37.24612 -110.30583 39744 ft 362 kts 255°
2026-05-05 01:55 37.23351 -110.36690 39733 ft 359 kts 255°
2026-05-05 01:56 37.22095 -110.42756 39730 ft 359 kts 255°
2026-05-05 01:56 37.20833 -110.48839 39735 ft 360 kts 255°
2026-05-05 01:57 37.19577 -110.54877 39724 ft 359 kts 255°
2026-05-05 01:57 37.18301 -110.60997 39737 ft 361 kts 255°
2026-05-05 01:58 37.17284 -110.65857 39725 ft 361 kts 256°
2026-05-05 01:58 37.16457 -110.69810 39734 ft 363 kts 255°
2026-05-05 01:59 37.15176 -110.75909 39721 ft 360 kts 255°
2026-05-05 01:59 37.13905 -110.81951 39732 ft 357 kts 255°
2026-05-05 02:00 37.12633 -110.87969 39728 ft 356 kts 255°
2026-05-05 02:00 37.11361 -110.93975 39718 ft 357 kts 255°
2026-05-05 02:01 37.10089 -110.99968 39731 ft 358 kts 255°
2026-05-05 02:01 37.08808 -111.05985 39724 ft 357 kts 255°
2026-05-05 02:02 37.07524 -111.11999 39723 ft 357 kts 255°
2026-05-05 02:02 37.06792 -111.15419 39731 ft 358 kts 255°
2026-05-05 02:03 37.05872 -111.19718 39744 ft 360 kts 255°
2026-05-05 02:03 37.04582 -111.25725 39719 ft 357 kts 255°
2026-05-05 02:04 37.03507 -111.30717 39724 ft 359 kts 255°
2026-05-05 02:04 37.02203 -111.36755 39729 ft 358 kts 255°
2026-05-05 02:05 37.00899 -111.42784 39721 ft 358 kts 255°
2026-05-05 02:05 36.99602 -111.48758 39733 ft 359 kts 255°
2026-05-05 02:06 36.98286 -111.54807 39722 ft 358 kts 255°
2026-05-05 02:06 36.96975 -111.60816 39724 ft 358 kts 254°
2026-05-05 02:07 36.95311 -111.66724 39735 ft 360 kts 250°
2026-05-05 02:07 36.93542 -111.72516 39719 ft 358 kts 250°
2026-05-05 02:08 36.91776 -111.78343 39731 ft 360 kts 250°
2026-05-05 02:08 36.89995 -111.84254 39728 ft 363 kts 250°
2026-05-05 02:09 36.88221 -111.90134 39724 ft 361 kts 250°
2026-05-05 02:09 36.86443 -111.96023 39739 ft 362 kts 250°
2026-05-05 02:10 36.84675 -112.01874 39728 ft 362 kts 250°
2026-05-05 02:10 36.82894 -112.07756 39733 ft 361 kts 250°
2026-05-05 02:11 36.81120 -112.13603 39737 ft 362 kts 250°
2026-05-05 02:11 36.79334 -112.19476 39730 ft 361 kts 250°
2026-05-05 02:12 36.76653 -112.28286 39736 ft 365 kts 249°
2026-05-05 02:13 36.74828 -112.34257 39727 ft 370 kts 249°
2026-05-05 02:13 36.73009 -112.40204 39745 ft 362 kts 248°
2026-05-05 02:13 36.72129 -112.43077 39743 ft 348 kts 248°
2026-05-05 02:14 36.71273 -112.45861 39746 ft 343 kts 248°
2026-05-05 02:14 36.69546 -112.51469 39759 ft 349 kts 248°
2026-05-05 02:15 36.67801 -112.57127 39740 ft 351 kts 248°
2026-05-05 02:15 36.66054 -112.62788 39736 ft 350 kts 248°
2026-05-05 02:16 36.64303 -112.68448 39737 ft 351 kts 248°
2026-05-05 02:16 36.62543 -112.74125 39722 ft 350 kts 248°
2026-05-05 02:17 36.60787 -112.79800 39712 ft 351 kts 246°
2026-05-05 02:17 36.59022 -112.85468 39725 ft 353 kts 246°
2026-05-05 02:18 36.57244 -112.91167 39713 ft 352 kts 246°
2026-05-05 02:18 36.55467 -112.96852 39705 ft 352 kts 246°
2026-05-05 02:19 36.53688 -113.02534 39697 ft 352 kts 246°
2026-05-05 02:19 36.51913 -113.08193 39709 ft 353 kts 246°
2026-05-05 02:20 36.50134 -113.13854 39696 ft 352 kts 246°
2026-05-05 02:20 36.48349 -113.19525 39694 ft 352 kts 246°
2026-05-05 02:20 36.47457 -113.22355 39819 ft 350 kts 246°
2026-05-05 02:21 36.46564 -113.25181 39898 ft 353 kts 246°
2026-05-05 02:21 36.44762 -113.30883 39932 ft 357 kts 245°
2026-05-05 02:22 36.42961 -113.36573 39938 ft 356 kts 245°
2026-05-05 02:22 36.41095 -113.42283 39930 ft 355 kts 244°
2026-05-05 02:23 36.39035 -113.47855 39936 ft 356 kts 243°
2026-05-05 02:23 36.36945 -113.53445 39935 ft 356 kts 243°
2026-05-05 02:24 36.34880 -113.58963 39929 ft 355 kts 243°
2026-05-05 02:24 36.32798 -113.64521 39941 ft 356 kts 243°
2026-05-05 02:25 36.30707 -113.70093 39928 ft 355 kts 243°
2026-05-05 02:25 36.28624 -113.75637 39941 ft 356 kts 243°
2026-05-05 02:26 36.26519 -113.81228 39930 ft 356 kts 243°
2026-05-05 02:26 36.24438 -113.86748 39932 ft 355 kts 243°
2026-05-05 02:27 36.22325 -113.92343 39941 ft 358 kts 243°
2026-05-05 02:27 36.20212 -113.97927 39926 ft 357 kts 243°
2026-05-05 02:28 36.18116 -114.03457 39939 ft 357 kts 243°
2026-05-05 02:28 36.15975 -114.09090 39999 ft 364 kts 243°
2026-05-05 02:29 36.13844 -114.14710 39952 ft 358 kts 242°
2026-05-05 02:29 36.11728 -114.20256 39937 ft 355 kts 242°
2026-05-05 02:30 36.09607 -114.25807 39929 ft 357 kts 242°
2026-05-05 02:30 36.07081 -114.31086 39905 ft 359 kts 231°
2026-05-05 02:31 36.03704 -114.35578 39931 ft 359 kts 228°
2026-05-05 02:31 36.00316 -114.40094 39931 ft 358 kts 229°
2026-05-05 02:32 35.96954 -114.44666 39942 ft 360 kts 229°
2026-05-05 02:32 35.93618 -114.49245 39927 ft 358 kts 229°
2026-05-05 02:33 35.90300 -114.53812 39937 ft 359 kts 229°
2026-05-05 02:33 35.86964 -114.58407 39936 ft 359 kts 229°
2026-05-05 02:34 35.83632 -114.62995 39927 ft 358 kts 229°
2026-05-05 02:34 35.80299 -114.67580 39942 ft 360 kts 229°
2026-05-05 02:35 35.76964 -114.72162 39930 ft 359 kts 229°
2026-05-05 02:35 35.73626 -114.76742 39933 ft 359 kts 229°
2026-05-05 02:36 35.70333 -114.81258 39936 ft 353 kts 229°
2026-05-05 02:36 35.67051 -114.85747 39929 ft 353 kts 229°
2026-05-05 02:37 35.63748 -114.90268 39941 ft 356 kts 229°
2026-05-05 02:37 35.60466 -114.94756 39927 ft 354 kts 229°
2026-05-05 02:38 35.57176 -114.99251 39932 ft 355 kts 229°
2026-05-05 02:38 35.53877 -115.03752 39942 ft 355 kts 229°
2026-05-05 02:39 35.50567 -115.08233 39928 ft 353 kts 228°
2026-05-05 02:39 35.47196 -115.12660 39937 ft 355 kts 228°
2026-05-05 02:40 35.43810 -115.17085 39935 ft 355 kts 228°
2026-05-05 02:40 35.40455 -115.21464 39927 ft 354 kts 228°
2026-05-05 02:41 35.37071 -115.25876 39942 ft 355 kts 227°
2026-05-05 02:41 35.33677 -115.30299 39930 ft 356 kts 227°
2026-05-05 02:42 35.30283 -115.34709 39933 ft 355 kts 227°
2026-05-05 02:42 35.26899 -115.39101 39940 ft 356 kts 227°
2026-05-05 02:43 35.23496 -115.43513 39926 ft 355 kts 227°
2026-05-05 02:43 35.20064 -115.47944 39938 ft 363 kts 229°
2026-05-05 02:44 35.16659 -115.52373 39972 ft 353 kts 226°
2026-05-05 02:44 35.13324 -115.56675 39924 ft 347 kts 226°
2026-05-05 02:45 35.09969 -115.60977 39939 ft 353 kts 226°
2026-05-05 02:45 35.06579 -115.65312 39933 ft 350 kts 226°
2026-05-05 02:46 35.03234 -115.69585 39930 ft 350 kts 226°
2026-05-05 02:46 34.99858 -115.73893 39941 ft 352 kts 226°
2026-05-05 02:47 34.97915 -115.76370 39857 ft 352 kts 226°
2026-05-05 02:47 34.94535 -115.80679 39905 ft 353 kts 226°
2026-05-05 02:48 34.91709 -115.84273 39925 ft 353 kts 226°
2026-05-05 02:48 34.87752 -115.89299 39941 ft 354 kts 226°
2026-05-05 02:49 34.84909 -115.92907 39928 ft 353 kts 226°
2026-05-05 02:49 34.83197 -115.95077 39568 ft 356 kts 225°
2026-05-05 02:49 34.80960 -115.97913 39246 ft 345 kts 225°
2026-05-05 02:49 34.79845 -115.99325 39119 ft 341 kts 225°
2026-05-05 02:50 34.78202 -116.01405 39028 ft 341 kts 225°
2026-05-05 02:50 34.74872 -116.05642 38846 ft 351 kts 226°
2026-05-05 02:50 34.73202 -116.07771 38654 ft 353 kts 225°
2026-05-05 02:51 34.71482 -116.09962 38407 ft 352 kts 225°
2026-05-05 02:51 34.69821 -116.12077 38141 ft 350 kts 225°
2026-05-05 02:51 34.68145 -116.14209 37858 ft 349 kts 225°
2026-05-05 02:51 34.66472 -116.16336 37563 ft 351 kts 225°
2026-05-05 02:52 34.64755 -116.18516 37258 ft 354 kts 225°
2026-05-05 02:52 34.63043 -116.20690 36953 ft 357 kts 225°
2026-05-05 02:52 34.61325 -116.22870 36636 ft 358 kts 225°
2026-05-05 02:52 34.59598 -116.25061 36330 ft 359 kts 225°
2026-05-05 02:53 34.57862 -116.27260 36001 ft 360 kts 225°
2026-05-05 02:53 34.56155 -116.29423 35682 ft 361 kts 225°
2026-05-05 02:53 34.54409 -116.31632 35358 ft 363 kts 225°
2026-05-05 02:53 34.52656 -116.33849 35032 ft 364 kts 225°
2026-05-05 02:54 34.50894 -116.36076 34705 ft 367 kts 225°
2026-05-05 02:54 34.49119 -116.38319 34374 ft 369 kts 225°
2026-05-05 02:54 34.47353 -116.40548 34046 ft 368 kts 225°
2026-05-05 02:54 34.45590 -116.42774 33716 ft 364 kts 225°
2026-05-05 02:55 34.43853 -116.44989 33396 ft 360 kts 226°
2026-05-05 02:55 34.42438 -116.47431 33113 ft 348 kts 234°
2026-05-05 02:55 34.41245 -116.49924 32817 ft 335 kts 235°
2026-05-05 02:55 34.40131 -116.52328 32466 ft 326 kts 236°
2026-05-05 02:56 34.39051 -116.54719 32108 ft 323 kts 236°
2026-05-05 02:56 34.37959 -116.57183 31720 ft 332 kts 237°
2026-05-05 02:56 34.36891 -116.59640 31318 ft 333 kts 237°
2026-05-05 02:56 34.35829 -116.62123 30891 ft 329 kts 237°
2026-05-05 02:57 34.34787 -116.64577 30459 ft 326 kts 237°
2026-05-05 02:57 34.33760 -116.67013 30033 ft 324 kts 238°
2026-05-05 02:57 34.32761 -116.69451 29637 ft 324 kts 239°
2026-05-05 02:57 34.31758 -116.71923 29190 ft 326 kts 239°
2026-05-05 02:58 34.30774 -116.74355 28697 ft 327 kts 239°
2026-05-05 02:58 34.29766 -116.76856 28199 ft 326 kts 239°
2026-05-05 02:58 34.28773 -116.79293 27715 ft 318 kts 242°
2026-05-05 02:58 34.27816 -116.81690 27224 ft 312 kts 241°
2026-05-05 02:59 34.26885 -116.84000 26770 ft 309 kts 241°
2026-05-05 02:59 34.25927 -116.86371 26317 ft 318 kts 241°
2026-05-05 02:59 34.24944 -116.88798 25853 ft 323 kts 242°
2026-05-05 02:59 34.23960 -116.91232 25372 ft 323 kts 242°
2026-05-05 03:00 34.22977 -116.93670 24891 ft 323 kts 242°
2026-05-05 03:00 34.21990 -116.96116 24409 ft 322 kts 242°
2026-05-05 03:00 34.21114 -116.98595 24046 ft 319 kts 246°
2026-05-05 03:00 34.20376 -117.01133 23464 ft 322 kts 248°
2026-05-05 03:01 34.19667 -117.03687 22783 ft 326 kts 249°
2026-05-05 03:01 34.18951 -117.06308 22018 ft 330 kts 249°
2026-05-05 03:01 34.18224 -117.08980 21258 ft 332 kts 249°
2026-05-05 03:01 34.17508 -117.11619 20522 ft 334 kts 250°
2026-05-05 03:02 34.16779 -117.14299 19770 ft 337 kts 250°
2026-05-05 03:02 34.16037 -117.17010 19014 ft 339 kts 250°
2026-05-05 03:02 34.15295 -117.19714 18265 ft 341 kts 250°
2026-05-05 03:02 34.14555 -117.22410 17522 ft 343 kts 250°
2026-05-05 03:03 34.13801 -117.25154 16771 ft 345 kts 250°
2026-05-05 03:03 34.13263 -117.27112 16229 ft 345 kts 250°
2026-05-05 03:03 34.12508 -117.29856 15514 ft 345 kts 250°
2026-05-05 03:03 34.11753 -117.32595 14895 ft 342 kts 250°
2026-05-05 03:04 34.11007 -117.35298 14380 ft 337 kts 250°
2026-05-05 03:04 34.10302 -117.37989 13896 ft 331 kts 251°
2026-05-05 03:04 34.09648 -117.40562 13468 ft 325 kts 252°
2026-05-05 03:04 34.09174 -117.42435 13186 ft 319 kts 252°
2026-05-05 03:05 34.08542 -117.44960 12851 ft 311 kts 252°
2026-05-05 03:05 34.07921 -117.47438 12550 ft 304 kts 252°
2026-05-05 03:05 34.07358 -117.49870 12175 ft 299 kts 255°
2026-05-05 03:05 34.06953 -117.52320 11814 ft 295 kts 258°
2026-05-05 03:06 34.06597 -117.54708 11473 ft 291 kts 259°
2026-05-05 03:06 34.06250 -117.57088 11149 ft 287 kts 259°
2026-05-05 03:06 34.05902 -117.59464 10843 ft 282 kts 259°
2026-05-05 03:06 34.05564 -117.61768 10560 ft 278 kts 260°
2026-05-05 03:07 34.05226 -117.64070 10287 ft 274 kts 260°
2026-05-05 03:07 34.04895 -117.66315 10014 ft 270 kts 260°
2026-05-05 03:07 34.04572 -117.68500 9714 ft 269 kts 260°
2026-05-05 03:07 34.04339 -117.70077 9492 ft 267 kts 260°
2026-05-05 03:08 34.04031 -117.72147 9219 ft 265 kts 260°
2026-05-05 03:08 34.03711 -117.74309 8952 ft 262 kts 259°
2026-05-05 03:08 34.03388 -117.76485 8694 ft 259 kts 259°
2026-05-05 03:08 34.03076 -117.78585 8436 ft 257 kts 259°
2026-05-05 03:09 34.02758 -117.80718 8145 ft 257 kts 259°
2026-05-05 03:09 34.02440 -117.82848 7848 ft 257 kts 259°
2026-05-05 03:09 34.02126 -117.84949 7571 ft 255 kts 259°
2026-05-05 03:09 34.01812 -117.87051 7309 ft 252 kts 259°
2026-05-05 03:10 34.01502 -117.89123 7059 ft 250 kts 259°
2026-05-05 03:10 34.01199 -117.91150 6788 ft 248 kts 259°
2026-05-05 03:10 34.00890 -117.93202 6562 ft 250 kts 259°
2026-05-05 03:10 34.00490 -117.95281 6153 ft 258 kts 255°
2026-05-05 03:11 34.00381 -117.95733 6083 ft 258 kts 254°
2026-05-05 03:11 33.99901 -117.97695 5881 ft 251 kts 253°
2026-05-05 03:11 33.99469 -117.99701 5654 ft 247 kts 255°
2026-05-05 03:11 33.99129 -118.01687 5416 ft 243 kts 258°
2026-05-05 03:12 33.98864 -118.03709 5136 ft 242 kts 260°
2026-05-05 03:12 33.98679 -118.05720 4853 ft 241 kts 262°
2026-05-05 03:12 33.98521 -118.07724 4593 ft 240 kts 263°
2026-05-05 03:12 33.98355 -118.09698 4359 ft 237 kts 262°
2026-05-05 03:13 33.98162 -118.11684 4180 ft 234 kts 262°
2026-05-05 03:13 33.97944 -118.13581 4119 ft 226 kts 261°
2026-05-05 03:13 33.97725 -118.15450 4052 ft 221 kts 261°
2026-05-05 03:13 33.97528 -118.17273 3849 ft 223 kts 261°
2026-05-05 03:14 33.97352 -118.19140 3558 ft 227 kts 262°
2026-05-05 03:14 33.97179 -118.21048 3237 ft 225 kts 262°
2026-05-05 03:14 33.96996 -118.22908 2943 ft 216 kts 262°
2026-05-05 03:14 33.96813 -118.24578 2678 ft 191 kts 261°
2026-05-05 03:15 33.96646 -118.26065 2469 ft 172 kts 261°
2026-05-05 03:15 33.96497 -118.27461 2219 ft 161 kts 261°
2026-05-05 03:15 33.96372 -118.28766 1994 ft 154 kts 262°
2026-05-05 03:15 33.96255 -118.30043 1795 ft 151 kts 262°
2026-05-05 03:16 33.96133 -118.31237 1627 ft 149 kts 262°
2026-05-05 03:16 33.96000 -118.32465 1418 ft 146 kts 261°
2026-05-05 03:16 33.95869 -118.33668 1220 ft 141 kts 261°
2026-05-05 03:16 33.95750 -118.34815 1035 ft 138 kts 261°
2026-05-05 03:17 33.95641 -118.35940 860 ft 133 kts 262°
2026-05-05 03:17 33.95533 -118.37040 685 ft 133 kts 262°
2026-05-05 03:17 33.95415 -118.38180 505 ft 138 kts 262°
2026-05-05 03:17 33.95294 -118.39333 320 ft 140 kts 263°
2026-05-05 03:18 33.95181 -118.40491 161 ft 140 kts 263°
2026-05-05 03:18 33.95068 -118.41604 140 ft 117 kts 263°
2026-05-05 03:18 33.94989 -118.42349 139 ft 60 kts 263°
2026-05-05 03:18 33.94920 -118.42588 139 ft 13 kts 232°
2026-05-05 03:19 33.94775 -118.42739 139 ft 16 kts 209°
2026-05-05 03:19 33.94674 -118.42762 139 ft 11 kts 163°
2026-05-05 03:19 33.94652 -118.42659 139 ft 18 kts 84°
2026-05-05 03:20 33.94667 -118.42465 139 ft 28 kts 85°
2026-05-05 03:20 33.94691 -118.42220 139 ft 33 kts 83°
2026-05-05 03:20 33.94718 -118.41972 139 ft 28 kts 82°
2026-05-05 03:20 33.94745 -118.41733 139 ft 31 kts 82°
2026-05-05 03:21 33.94768 -118.41508 139 ft 23 kts 85°
2026-05-05 03:21 33.94782 -118.41328 139 ft 15 kts 91°
2026-05-05 03:21 33.94706 -118.41267 139 ft 16 kts 174°
2026-05-05 03:21 33.94609 -118.41253 139 ft 9 kts 158°
2026-05-05 03:22 33.94594 -118.41174 139 ft 6 kts 84°
2026-05-05 03:22 33.94594 -118.41172 139 ft 0 kts 84°